User: anonymous   Login
Location: Unspecified
(0.0000°N, 0.0000°E)
Time: 02:59:32
(UTC+00:00)
Language:

MERIDIAN 4 - Orbit

View from above orbital plane
View from above orbital plane
View from above satellite
View from above satellite

Ground track
Ground track

The orbit is defined by the following mean orbital elements,

1 37398U          26072.42359419 +.00000000 +00000-0 +29601-2 0 00007
2 37398  62.0925  89.2889 7505883 264.5577  14.6941  2.01603572    03
Epoch (UTC): 13 March 2026 10:09:58
Eccentricity: 0.7505883
inclination: 62.0925°
perigee height: 224 km
apogee height: 39958 km
right ascension of ascending node: 89.2889°
argument of perigee: 264.5577°
revolutions per day: 2.01603572
mean anomaly at epoch: 14.6941°

The dashed part of the orbit path shows where the satellite is in the earth's shadow,  

DLR